Flag for Germany Weather past 2 weeks in Bayreuth, Bavaria, Germany

Now
45 °F

Overcast.


Feels Like: 37 °F
Forecast: 33 / 43 °F
Wind: 16 mph from West

Location: Grafenwoehr

Current Time: Dec 23, 2014 at 2:06:31 AM

Latest Report: Dec 23, 2014 at 12:58 AM


Visibility: N/A

Pressure: 30.19 "Hg

Humidity: 81%

Dew point: 39 °F

Location of BayreuthLocation

Historic Weather in Bayreuth — Graph

°F

Bayreuth temperature yesterday

Maximum temperature yesterday: 45 °F (at 11:58 PM)
Minimum temperature yesterday: 39 °F (at 12:00 AM)
Average temperature yesterday: 42 °F

Past Weeks' High & Low Weather Summary

 TemperatureHumidityPressure
High53 °F (Dec 13, 12:58 PM)100% (Dec 8, 4:58 AM)30.49 "Hg (Dec 8, 4:58 AM)
Low25 °F (Dec 8, 9:58 PM)52% (Dec 13, 12:58 PM)29.72 "Hg (Dec 12, 6:58 PM)
Average39 °F88%30.07 "Hg
* Reported Dec 8 12:58 AM — Dec 23 12:58 AM, Bayreuth, Weather by CustomWeather, © 2014

Note: Actual official high and low records may vary slightly from our data, if they occured in-between our weather recording intervals... More about our weather records

Advertising

Bayreuth weather history for previous 24 hours

 ConditionsComfort  
Time TempWeatherWind HumidityBarometerVisibility
12:58 AM
Dec 23
45 °FOvercast.16 mph81%30.19 "HgN/A
11:58 PM
Dec 22
45 °FOvercast.9 mph81%30.19 "HgN/A
10:58 PM43 °FOvercast.12 mph87%30.19 "HgN/A
9:58 PM43 °FOvercast.14 mph87%30.20 "HgN/A
8:58 PM43 °FOvercast.9 mph87%30.21 "HgN/A
7:58 PM42 °FOvercast.10 mph90%30.22 "HgN/A
3:58 PM44 °FOvercast.8 mph80%30.18 "HgN/A
2:58 PM43 °FOvercast.6 mph81%30.19 "HgN/A
1:58 PM43 °FOvercast.12 mph81%30.19 "HgN/A
12:58 PM43 °FOvercast.9 mph81%30.22 "HgN/A
11:58 AM43 °FOvercast.14 mph81%30.22 "HgN/A
10:58 AM43 °FOvercast.15 mph81%30.24 "HgN/A
9:58 AM42 °FOvercast.13 mph81%30.24 "HgN/A
8:59 AM41 °FDrizzle. Overcast.12 mph81%30.19 "HgN/A
7:58 AM41 °FOvercast.8 mph82%30.26 "HgN/A
6:58 AM41 °FOvercast.14 mph80%30.24 "HgN/A
5:58 AM41 °FOvercast.12 mph76%30.25 "HgN/A
4:58 AM41 °FOvercast.15 mph76%30.26 "HgN/A
3:58 AM41 °FOvercast.12 mph76%30.28 "HgN/A
2:58 AM40 °FOvercast.16 mph81%30.28 "HgN/A
Weather by CustomWeather, © 2014

See weather overviewHow to use our weather pages